Location: Cañada de la Miga
(34.7595°N, 106.2317°W)
Time: 16:53:36
(UTC+00:00)

Transit 4A - Pass Details

Date: 08 December 2021
Orbit: 864 x 981 km, 66.8° (Epoch: 18 January)

Event Time Altitude Azimuth Distance (km) Brightness Sun altitude
Rises 01:37:28 0° 221° (SW) 3,440 11.8 -20.7°
Reaches altitude 10° 01:40:00 10° 227° (SW) 2,515 11.0 -21.2°
Maximum altitude 01:45:36 48° 301° (WNW) 1,145 8.6 -22.4°
Enters shadow 01:50:08 16° 11° (N) 2,162 9.6 -23.3°
